When you browse on this site, cookies collect data to enhance your experience and personalize the content and advertising you see.
Visit our Privacy Policy to learn more. By continuing to use the site, you agree to this use of cookies and data.
  • In Hungary
  • List of Countries
  • For 7 days
  • Water Temperature
  • Satellite Maps
  • Weather Map
  • News
  • Weather Widgets
  • user-avatar
    Login

    Hourly Weather Borovaya

    Today, 22 January, Tuesday

    Time Temperature Precipitation Wind Pressure Humidity
    00:00 -12°C° 0 mm 2 mps 751 mmHg 93%
    01:00 -13°C° 0 mm 2 mps 751 mmHg 94%
    02:00 -15°C° 0 mm 2 mps 751 mmHg 97%
    03:00 -15°C° 0 mm 2 mps 751 mmHg 97%
    04:00 -15°C° 0 mm 2 mps 752 mmHg 97%
    05:00 -13°C° 0 mm 1 mps 752 mmHg 97%
    06:00 -13°C° 0 mm 1 mps 752 mmHg 97%
    07:00 -13°C° 0 mm 1 mps 752 mmHg 96%
    08:00 -15°C° 0 mm 2 mps 752 mmHg 96%
    09:00 -13°C° 0 mm 2 mps 753 mmHg 95%
    10:00 -12°C° 0 mm 2 mps 753 mmHg 94%
    11:00 -9°C° 0 mm 2 mps 753 mmHg 93%
    12:00 -9°C° 0 mm 2 mps 753 mmHg 93%
    13:00 -8°C° 0 mm 2 mps 753 mmHg 92%
    14:00 -8°C° 0 mm 2 mps 753 mmHg 92%
    15:00 -8°C° 0 mm 1 mps 753 mmHg 93%
    16:00 -9°C° 0 mm 1 mps 753 mmHg 94%
    17:00 -10°C° 0 mm 0 mps 753 mmHg 95%
    18:00 -10°C° 0 mm 0 mps 753 mmHg 96%
    19:00 -11°C° 0 mm 0 mps 753 mmHg 96%
    20:00 -11°C° 0 mm 0 mps 753 mmHg 96%
    21:00 -11°C° 0 mm 1 mps 753 mmHg 96%
    22:00 -11°C° 0 mm 1 mps 753 mmHg 96%
    23:00 -12°C° 0 mm 2 mps 754 mmHg 96%

    Tomorrow, 23 January, Wednesday

    Time Temperature Precipitation Wind Pressure Humidity
    00:00 -13°C° 0 mm 2 mps 753 mmHg 96%
    01:00 -13°C° 0 mm 2 mps 753 mmHg 97%
    02:00 -13°C° 0 mm 2 mps 753 mmHg 97%
    03:00 -13°C° 0 mm 2 mps 753 mmHg 97%
    04:00 -13°C° 0 mm 2 mps 753 mmHg 97%
    05:00 -14°C° 0 mm 3 mps 753 mmHg 97%
    06:00 -14°C° 0 mm 3 mps 752 mmHg 96%
    07:00 -14°C° 0 mm 3 mps 752 mmHg 96%
    08:00 -15°C° 0 mm 4 mps 752 mmHg 95%
    09:00 -15°C° 0 mm 4 mps 752 mmHg 94%
    10:00 -14°C° 0 mm 4 mps 752 mmHg 93%
    11:00 -13°C° 0 mm 5 mps 752 mmHg 92%
    12:00 -13°C° 0 mm 5 mps 751 mmHg 91%
    13:00 -12°C° 0 mm 5 mps 751 mmHg 90%
    14:00 -12°C° 0 mm 6 mps 750 mmHg 90%
    15:00 -12°C° 0.1 mm 6 mps 750 mmHg 89%
    16:00 -13°C° 0.1 mm 7 mps 749 mmHg 89%
    17:00 -13°C° 0.1 mm 7 mps 749 mmHg 89%
    18:00 -13°C° 0.6 mm 7 mps 748 mmHg 91%
    19:00 -13°C° 0.6 mm 7 mps 747 mmHg 93%
    20:00 -12°C° 0.6 mm 7 mps 747 mmHg 94%
    21:00 -12°C° 0.9 mm 7 mps 746 mmHg 94%
    22:00 -11°C° 0.9 mm 7 mps 746 mmHg 94%
    23:00 -9°C° 0.9 mm 7 mps 745 mmHg 94%

    Day after tomorrow, 24 January, Thursday

    Time Temperature Precipitation Wind Pressure Humidity
    00:00 -8°C° 1 mm 7 mps 744 mmHg 94%
    01:00 -7°C° 1 mm 7 mps 744 mmHg 94%
    02:00 -5°C° 1 mm 6 mps 743 mmHg 94%
    03:00 -4°C° 0.2 mm 6 mps 743 mmHg 95%
    04:00 -2°C° 0.2 mm 5 mps 743 mmHg 96%
    05:00 -1°C° 0.2 mm 5 mps 743 mmHg 97%
    06:00 -1°C° 0 mm 5 mps 743 mmHg 98%
    07:00 -1°C° 0 mm 4 mps 743 mmHg 99%
    08:00 -1°C° 0 mm 4 mps 743 mmHg 99%
    09:00 0°C° 0 mm 3 mps 743 mmHg 99%
    10:00 0°C° 0 mm 3 mps 743 mmHg 99%
    11:00 0°C° 0 mm 3 mps 743 mmHg 100%
    12:00 +1°C° 0 mm 2 mps 743 mmHg 100%
    13:00 +1°C° 0 mm 2 mps 743 mmHg 100%
    14:00 +2°C° 0 mm 1 mps 743 mmHg 100%
    15:00 +2°C° 0.3 mm 1 mps 744 mmHg 99%
    16:00 +2°C° 0.3 mm 1 mps 744 mmHg 99%
    17:00 +1°C° 0.3 mm 0 mps 744 mmHg 99%
    18:00 +2°C° 0.2 mm 1 mps 744 mmHg 99%
    19:00 +2°C° 0.2 mm 1 mps 744 mmHg 99%
    20:00 +2°C° 0.2 mm 1 mps 744 mmHg 99%
    21:00 +2°C° 0.3 mm 1 mps 745 mmHg 99%
    22:00 +2°C° 0.3 mm 1 mps 745 mmHg 99%
    23:00 +2°C° 0.3 mm 1 mps 745 mmHg 99%

    25 January, Friday

    Time Temperature Precipitation Wind Pressure Humidity
    00:00 +1°C° 0.9 mm 2 mps 745 mmHg 99%
    01:00 +1°C° 0.9 mm 2 mps 745 mmHg 99%
    02:00 +1°C° 0.9 mm 2 mps 745 mmHg 99%
    03:00 +1°C° 0.1 mm 2 mps 745 mmHg 99%
    04:00 0°C° 0.1 mm 3 mps 745 mmHg 98%
    05:00 -1°C° 0.1 mm 3 mps 745 mmHg 98%
    06:00 0°C° 0 mm 3 mps 745 mmHg 97%
    07:00 -1°C° 0 mm 4 mps 745 mmHg 97%
    08:00 -1°C° 0 mm 4 mps 746 mmHg 96%
    09:00 -1°C° 0 mm 4 mps 746 mmHg 97%
    10:00 -1°C° 0 mm 5 mps 746 mmHg 98%
    11:00 -1°C° 0 mm 5 mps 746 mmHg 99%
    12:00 -1°C° 0 mm 5 mps 746 mmHg 99%
    13:00 -1°C° 0 mm 5 mps 746 mmHg 99%
    14:00 -2°C° 0 mm 5 mps 746 mmHg 99%
    15:00 -2°C° 0 mm 5 mps 746 mmHg 98%
    16:00 -2°C° 0 mm 5 mps 746 mmHg 96%
    17:00 -2°C° 0 mm 5 mps 746 mmHg 95%
    18:00 -2°C° 0.1 mm 5 mps 746 mmHg 95%
    19:00 -2°C° 0.1 mm 5 mps 746 mmHg 95%
    20:00 -2°C° 0.1 mm 5 mps 747 mmHg 95%
    21:00 -2°C° 0.1 mm 5 mps 746 mmHg 95%
    22:00 -1°C° 0.1 mm 5 mps 746 mmHg 95%
    23:00 -1°C° 0.1 mm 5 mps 746 mmHg 96%

    26 January, Saturday

    Time Temperature Precipitation Wind Pressure Humidity
    00:00 -1°C° 0.1 mm 5 mps 746 mmHg 96%
    01:00 -2°C° 0.1 mm 5 mps 746 mmHg 96%
    02:00 -2°C° 0.1 mm 5 mps 746 mmHg 96%
    03:00 -2°C° 0.2 mm 5 mps 745 mmHg 96%
    04:00 -2°C° 0.2 mm 5 mps 745 mmHg 96%
    05:00 -2°C° 0.2 mm 4 mps 745 mmHg 96%
    06:00 -2°C° 0.4 mm 4 mps 744 mmHg 96%
    07:00 -1°C° 0.4 mm 4 mps 744 mmHg 96%
    08:00 -1°C° 0.4 mm 4 mps 744 mmHg 96%
    09:00 -1°C° 0.7 mm 4 mps 744 mmHg 96%
    10:00 -1°C° 0.7 mm 4 mps 744 mmHg 97%
    11:00 -1°C° 0.7 mm 4 mps 744 mmHg 98%
    12:00 -1°C° 0.1 mm 4 mps 744 mmHg 98%
    13:00 -1°C° 0.1 mm 4 mps 743 mmHg 99%
    14:00 -2°C° 0.1 mm 4 mps 743 mmHg 99%
    15:00 -2°C° 0.1 mm 4 mps 742 mmHg 97%
    16:00 -2°C° 0.1 mm 4 mps 742 mmHg 96%
    17:00 -2°C° 0.1 mm 4 mps 742 mmHg 95%
    18:00 -2°C° 0.5 mm 4 mps 742 mmHg 95%
    19:00 -2°C° 0.5 mm 4 mps 742 mmHg 95%
    20:00 -2°C° 0.5 mm 4 mps 741 mmHg 95%
    21:00 -2°C° 0.2 mm 4 mps 741 mmHg 95%
    22:00 -1°C° 0.2 mm 3 mps 741 mmHg 95%
    23:00 -1°C° 0.2 mm 3 mps 741 mmHg 96%

    27 January, Sunday

    Time Temperature Precipitation Wind Pressure Humidity
    00:00 -1°C° 0.2 mm 3 mps 740 mmHg 96%
    01:00 -1°C° 0.2 mm 3 mps 740 mmHg 96%
    02:00 -2°C° 0.2 mm 3 mps 740 mmHg 96%
    03:00 -2°C° 0.2 mm 2 mps 739 mmHg 96%
    04:00 -2°C° 0.2 mm 2 mps 739 mmHg 97%
    05:00 -2°C° 0.2 mm 2 mps 739 mmHg 97%
    06:00 -2°C° 0.1 mm 2 mps 739 mmHg 97%
    07:00 -2°C° 0.1 mm 2 mps 739 mmHg 97%
    08:00 -3°C° 0.1 mm 2 mps 739 mmHg 97%
    09:00 0°C° 0 mm 1 mps 739 mmHg 98%
    10:00 0°C° 0 mm 1 mps 739 mmHg 98%
    11:00 0°C° 0 mm 1 mps 739 mmHg 99%
    12:00 +1°C° 0 mm 1 mps 738 mmHg 99%
    13:00 +1°C° 0 mm 1 mps 738 mmHg 99%
    14:00 +1°C° 0 mm 1 mps 738 mmHg 99%
    15:00 -2°C° 0 mm 2 mps 738 mmHg 98%
    16:00 -2°C° 0 mm 3 mps 739 mmHg 97%
    17:00 -4°C° 0 mm 3 mps 739 mmHg 96%
    18:00 -7°C° 0 mm 4 mps 739 mmHg 95%
    19:00 -8°C° 0 mm 4 mps 739 mmHg 94%
    20:00 -10°C° 0 mm 4 mps 739 mmHg 93%
    21:00 -10°C° 0 mm 4 mps 740 mmHg 92%
    22:00 -11°C° 0 mm 4 mps 740 mmHg 92%
    23:00 -12°C° 0 mm 4 mps 740 mmHg 91%
    Show more